DECAYED

STARLINK-1746, 46588 (Decayed)

Orbit data source: Space-Track

STARLINK-1746, 46588 was a payload satellite owned by SpaceX/Seattle (US) in LEO that was launched on Tue, 06 Oct 2020 UTC via an FALCON 9 launch vehicle from the Air Force Eastern Test Range (AFETR). Payload-class satellites include a variety of spacecraft equipped with specific instruments for various scientific and technological missions. These include communications satellites like Starlink; space stations such as the ISS; scientific satellites like the Hubble; Earth observation satellites from companies like Planet Labs, Umbra, and HawkEye 360; GPS; miniature CubeSats for education and research; and military/defense satellites.

Not visible in the next 10 days
Identifier
46588, 2020-070BJ
Orbit
Decayed
Country
Flag of USUS
Related business
Manufacturer
SpaceX/Seattle
Mission
Decayed Commercial Communications
Bus & Motor
STARLINK, Unknown motor
Mass
260 kg wet, ~248 kg dry
Launch date (UTC)
2020-10-06 (6 years ago)
Launch vehicle
FALCON 9
Launch site
Air Force Eastern Test Range (AFETR)
Object type
Payload
Rocket body
Debris
Shape & HBR
Box + 1 Pan, 10.1 m
Radar Cross Section
13.562 m², Large (>1 m²)

Expand to show TLE details & history
Last TLE update: 1 month ago

TLE from 1 month ago
0 STARLINK-1746
1 46588U 20070BJ  26139.06599432  .09858886  12429-4  58518-3 0  9993
2 46588  53.0126 116.9900 0003887 288.2398  71.8226 16.41635089311567
Epoch: 2026-05-19T01:35Z
TLE epoch observation values (Epoch: 2026-05-19T01:35:01.909Z)
Latitude
0.00003°
Longitude
-143.51318°
Altitude
161.591 km
Speed
7.811 km/s
True Right ascension
07h 47m 57s
True Declination
0° 00' 00"
Sunlit
Object was in daylight at epoch
Visualization orbit readout
Latitude
Unknown
Longitude
Unknown
Altitude
Unknown
Speed
Unknown
Apparent Right ascension
Unknown
Apparent Declination
Unknown
Sunlit
N/A
Visualization observer readout
Local Sidereal Time
07:20:21
Azimuth
Unknown
Elevation
Unknown
Doppler factor
Unknown
Orbital elements
Apogee altitude
164.292 km
Perigee altitude
159.208 km
Semi-major axis
6,539.887 km
Eccentricity
0.00039
Inclination
53.0126°
RAAN
116.99°
Arg. of periapsis
288.2398°
True anomaly
71.86493°
Mean anomaly
71.8226°
Eccentric anomaly
71.84376°
Mean motion
4.10382 °/min
Orbital period
87.72 mins
BSTAR
0.00058518
Loading maneuver chart data...
Computing Atmospheric mass density...

Documentation

Showing up to 5 results
|